Tracking 19431 objects as of 18-Dec-2018
HD Live streaming from Space Station
objects crossing your sky now

QBITO

Track QBITO now!
10-day predictions
QBITO is classified as:


NORAD ID: 42728
Int'l Code: 1998-067MH
Perigee: 308.5 km
Apogee: 313.1 km
Inclination: 51.6 °
Period: 90.6 minutes
Semi major axis: 6681 km
RCS: Unknown
Launch date: November 20, 1998
Source: Spain (SPN)
Launch site: TYURATAM MISSILE AND SPACE COMPLEX (TTMTR)

Uplink (MHz):
Downlink (MHz): 436.810
Beacon (MHz):
Mode: 9600bps GFSK
Call sign:
Status: Inactive

aabbcc
Your satellite tracking list
Your tracking list is empty




NASA's NSSDC Master Catalog

Two Line Element Set (TLE):
1 42728U 98067MH  18352.40616915  .00116286  00000-0  38534-3 0  9994
2 42728  51.6296 124.3380 0003416 266.7049  93.3566 15.89498699 89448
Source of the keplerian elements: AMSAT